This is the latest recevied weather packets stored in our database for station/object N8JE-13. If no packets are shown the sender has not sent any weather packets the latest 1 day(s).
| Time | Temp. | Humidity | Pressure | Rain* | Wind** | Luminosity | Snow |
|---|---|---|---|---|---|---|---|
| 1778037652 | 9.44° C | 94% | 1006.8 hPa | 3.3 mm | 0.45 m/s, 42° | - | - |
| 1778037352 | 9.44° C | 94% | 1006.8 hPa | 3.56 mm | 0.89 m/s, 61° | - | - |
| 1778037052 | 9.44° C | 95% | 1006.7 hPa | 3.56 mm | 0.45 m/s, 51° | - | - |
| 1778036752 | 9.44° C | 95% | 1006.8 hPa | 3.56 mm | 0.45 m/s, 43° | - | - |
| 1778036452 | 9.44° C | 94% | 1007 hPa | 3.3 mm | 1.34 m/s, 47° | - | - |
| 1778036152 | 9.44° C | 94% | 1007.2 hPa | 3.3 mm | 1.34 m/s, 43° | - | - |
| 1778035852 | 9.44° C | 94% | 1007.5 hPa | 3.3 mm | 1.34 m/s, 23° | - | - |
| 1778035552 | 9.44° C | 94% | 1007.5 hPa | 3.3 mm | 0.89 m/s, 356° | - | - |
| 1778035252 | 9.44° C | 94% | 1007.6 hPa | 3.3 mm | 0.89 m/s, 20° | - | - |
| 1778034952 | 9.44° C | 94% | 1007.5 hPa | 2.79 mm | 0.89 m/s, 36° | - | - |
| 1778034652 | 9.44° C | 94% | 1007.4 hPa | 2.54 mm | 3.13 m/s, 40° | - | - |
| 1778034352 | 9.44° C | 94% | 1007.5 hPa | 2.29 mm | 2.68 m/s, 11° | - | - |
| 1778034052 | 10° C | 94% | 1007.5 hPa | 2.29 mm | 2.24 m/s, 15° | - | - |
| 1778033751 | 10° C | 94% | 1007.5 hPa | 2.29 mm | 0.89 m/s, 47° | - | - |
| 1778033451 | 10° C | 94% | 1007.3 hPa | 2.79 mm | 3.13 m/s, 0° | - | - |
| 1778033151 | 10° C | 94% | 1007.3 hPa | 3.05 mm | 2.68 m/s, 19° | - | - |
| 1778032852 | 10° C | 94% | 1007.2 hPa | 3.3 mm | 2.24 m/s, 21° | - | - |
| 1778032552 | 10° C | 94% | 1007.1 hPa | 3.05 mm | 1.34 m/s, 347° | - | - |
| 1778032252 | 10° C | 94% | 1006.9 hPa | 3.05 mm | 2.24 m/s, 3° | - | - |
| 1778031951 | 10° C | 94% | 1006.8 hPa | 3.05 mm | 3.13 m/s, 11° | - | - |
| 1778031651 | 10.56° C | 94% | 1006.8 hPa | 3.3 mm | 3.13 m/s, 13° | - | - |
| 1778031351 | 10.56° C | 93% | 1007 hPa | 3.81 mm | 1.34 m/s, 2° | - | - |
| 1778031051 | 10.56° C | 93% | 1007 hPa | 3.81 mm | 1.34 m/s, 325° | - | - |
| 1778030751 | 11.11° C | 92% | 1007 hPa | 3.81 mm | 2.24 m/s, 351° | - | - |
| 1778030452 | 11.11° C | 91% | 1006.9 hPa | 3.56 mm | 3.13 m/s, 1° | - | - |
* Rain latest hour (hover to see other rain measurements)
** Current wind speed in m/s (hover to see current wind gust speed)